Regional Weather Roundup
Issued by NWS Charleston, SC

Current Version | Previous Version | Graphics & Text | Print | Product List | Glossary On
Versions: 1 2 3 4 5 6 7 8 9 10 11 12 13 14 15 16 17 18 19 20 21 22 23 24 25 26 27 28 29 30 31 32 33 34 35 36 37 38 39 40 41 42 43 44 45 46 47 48 49 50
000 ASUS42 KCHS 271528 RWRCHS REGIONAL WEATHER ROUNDUP NATIONAL WEATHER SERVICE CHARLESTON SC 1100 AM EDT FRI MAY 27 2016 NOTE: "FAIR" INDICATES FEW OR NO CLOUDS BELOW 12,000 FEET WITH NO SIGNIFICANT WEATHER AND/OR OBSTRUCTIONS TO VISIBILITY. NOT ALL STATIONS ARE QUALITY CONTROLLED. USE DATA WITH CAUTION... ESPECIALLY DEWPOINT OBSERVATIONS. SCZ027-030-031-034>040-042>050-271600- ...SOUTHEAST SOUTH CAROLINA... CITY SKY/WX TMP DP RH WIND PRES REMARKS N CHARLESTON MOSUNNY 82 58 43 E8 30.14S WATERFRONT PRK N/A 80 63 55 E9 30.12S MOUNT PLEASANT FAIR 81 61 50 E9 30.15R JOHNS ISLAND FAIR 81 63 54 E8G15 30.15R PINOPOLIS N/A 82 61 47 VRB2 30.06F MONCKS CORNER FAIR 79 55 44 SE3 30.15R SUMMERVILLE FAIR 81 61 50 E3 30.15S BEAUFORT MCAS SUNNY 80 61 52 SE7 30.14R BEAUFORT ARPT FAIR 81 55 41 SE6 30.14R HILTON HEAD IS SUNNY 82 61 47 NE8 30.15S WALTERBORO SUNNY 82 57 42 E6 30.16R ALLENDALE FAIR 81 61 50 E7 30.14S ...SOUTHERN MIDLANDS AND PEE DEE... CITY SKY/WX TMP DP RH WIND PRES REMARKS GEORGETOWN FAIR 79 57 47 SE10 30.17R KINGSTREE FAIR 81 57 44 SE6 30.15S ORANGEBURG SUNNY 79 62 56 CALM 30.15S BARNWELL FAIR 82 63 51 CALM 30.15S AIKEN PTSUNNY 77 59 53 CALM 30.19S MANNING FAIR 79 59 50 CALM 30.15S COLUMBIA MOSUNNY 80 61 52 VRB5 30.15S SUMTER SUNNY 79 62 57 S3 30.13F FLORENCE MOSUNNY 80 63 55 CALM 30.16S MYRTLE BEACH MOSUNNY 81 59 47 SE7 30.18S N MYRTLE BEACH SUNNY 78 62 57 SE8 30.16F $$ GAZ063-065-086>088-099>101-113>116-118-119-134>141-150-271600- ...SOUTHEAST GEORGIA... CITY SKY/WX TMP DP RH WIND PRES REMARKS SAVANNAH ARPT MOSUNNY 82 58 43 SE12 30.14R HUNTER AAF SUNNY 81 63 54 E10 30.11R FORT STEWART SUNNY 81 61 50 E5 30.11R STATESBORO SUNNY 81 61 49 E3 30.13F SYLVANIA SUNNY 82 60 47 CALM 30.15S CLAXTON FAIR 81 59 47 E7 30.13S ...CSRA...CENTRAL AND FAR SOUTHEAST GEORGIA... CITY SKY/WX TMP DP RH WIND PRES REMARKS THOMSON PTSUNNY 79 65 62 S3 30.19F AUGUSTA-BUSH PTSUNNY 77 61 57 SE3 30.14F AUGUSTA-DANIEL SUNNY 80 59 48 VRB3 30.16S SWAINSBORO FAIR 81 59 47 SE7 30.14F VIDALIA SUNNY 81 59 47 E9 30.13F EASTMAN FAIR 82 59 45 E7 30.15S HAZLEHURST FAIR 81 55 40 CALM 30.11F ALMA SUNNY 80 58 46 SE8 30.12S WAYCROSS SUNNY 80 60 50 CALM 30.12S JESUP FAIR 77 61 57 E8G17 30.13S BAXLEY FAIR 82 59 44 SE9 30.12S BRUNSWICK PTSUNNY 82 64 54 NE10G18 30.13R SAINT SIMONS PTSUNNY 80 65 59 NE10 30.12R $$ SCZ027-028-034-036>038-045-046-048>050-GAZ119-141-271600- ...LAKE AND SUPPLEMENTAL COASTAL OBSERVATIONS... STATION/POSITION TIME TEMP WIND PRES WAVE SWELL AIR SEA DIR/SP/G HT/PER HT/PER/DIR (UTC) (F) (DEG/KT/KT) (MB) (FT/S) (FT/S/D) WINYAH BAY 1445 77 100/ 8 1020.0F LAKE MURRAY 1500 75 180/ 4/ 5 1020.7S ACE BASIN NERRS 1400 80 90/ 3 1021.0R FORT PULASKI 1500 76 76 70/ 11/ 12 1020.9R SAPELO ISLAND 1500 80 60/ 10 1020.0S $$ ANZ835-935-AMZ111-154-330-350-352-354-370-450-454-472-271600- ...C-MAN AND BUOY OBSERVATIONS... STATION/POSITION TIME TEMP WIND PRES WAVE SWELL AIR SEA DIR/SP/G HT/PER HT/PER/DIR (UTC) (F) (DEG/KT/KT) (MB) (FT/S) (FT/S/D) BUOY 41004 1450 77 77 60/ 12/ 14 1020.1F 3/ 8 2/ 8 BUOY 41008 1450 77 76 90/ 12/ 14 1019.7R 3/ 6 2/130/ 6 FOLLY BEACH CMAN 1500 77 70/ 11/ 13 1021.0R CAPERS NEARSHORE 1508 76 77 80/ 10/ 14 1020.6S FRIPP NEARSHORE 1508 76 76 80/ 10/ 14 1019.7F STATION/POSITION TIME TEMP WIND PRES WAVE SWELL AIR SEA DIR/SP/G HT/PER HT/PER/DIR (UTC) (F) (DEG/KT/KT) (MB) (FT/S) (FT/S/D) 5E ST. MARYS GA 1501 77 N/A 3/ 5 FRYING PAN BUOY 1500 76 76 60/ 10/ 12 1021.0F BUOY 41025 1450 77 82 120/ 6/ 6 1022.3S 2/ 7 2/130/ 7 CAPE LOOKOUT NC 1500 75 110/ 4/ 4 1021.7F BUOY 41002 1450 72 78 60/ 14/ 19 1019.7S 4/ 7 2/110/ 7 BUOY 41010 1420 77 78 40/ 12/ 16 1017.9R ST AUGUSTINE FL 1500 77 79 70/ 7/ 8 1019.9R $$

USA.gov is the U.S. government's official web portal to all federal, state and local government web resources and services.